QPF
0.00 0.00 0.00 0.00 0.00 0.00 0.00 0.00 0.00 0.00 0.00 0.00 0.00 0.00 0.00 0.00 0.00 0.00 0.00 0.00 0.00 0.00 0.00 0.00 0.00 0.00 0.00 0.00 0.00 0.00 0.00 0.00 0.00 0.00 0.00 0.00 0.00 0.00 0.00 0.00 0.00 0.00 0.00 0.00
0.00 0.00 0.00 0.00 0.00 0.00 0.00 0.00 0.00 0.00 0.00 0.00 0.00 0.00 0.00 0.00 0.00 0.00 0.00 0.00 0.00 0.00 0.00 0.00 0.00 0.00 0.00 0.00 0.00 0.00 0.00 0.00 0.00 0.00 0.00 0.00 0.00 0.00 0.00 0.00 0.00 0.00 0.00 0.00
0.00 0.00 0.00 0.00 0.00 0.00 0.00 0.00 0.00 0.00 0.00 0.00 0.00 0.00 0.00 0.00 0.00 0.00 0.00 0.00 0.00 0.00 0.00 0.00 0.00 0.00 0.00 0.00 0.00 0.00 0.00 0.00 0.00 0.01 0.01 0.02 0.02 0.02 0.02 0.01 0.01 0.01 0.01 0.00
0.00 0.00 0.00 0.00 0.00 0.00 0.00 0.00 0.00 0.00 0.00 0.00 0.00 0.00 0.00 0.00 0.00 0.00 0.00 0.00 0.00 0.00 0.00 0.00 0.00 0.00 0.00 0.00 0.00 0.00 0.00 0.00 0.01 0.02 0.03 0.04 0.05 0.05 0.05 0.05 0.04 0.03 0.02 0.01
0.00 0.00 0.00 0.00 0.00 0.00 0.00 0.00 0.00 0.00 0.00 0.00 0.00 0.00 0.00 0.00 0.00 0.00 0.00 0.00 0.00 0.00 0.00 0.00 0.00 0.00 0.00 0.00 0.00 0.00 0.01 0.01 0.02 0.04 0.06 0.08 0.09 0.09 0.08 0.07 0.05 0.04 0.02 0.01
0.00 0.00 0.00 0.00 0.00 0.00 0.00 0.00 0.00 0.00 0.00 0.00 0.00 0.00 0.00 0.00 0.00 0.00 0.00 0.00 0.00 0.00 0.00 0.00 0.00 0.00 0.00 0.01 0.01 0.01 0.02 0.03 0.04 0.06 0.09 0.12 0.14 0.14 0.13 0.10 0.08 0.05 0.03 0.01
0.00 0.00 0.00 0.00 0.00 0.00 0.00 0.00 0.00 0.00 0.00 0.00 0.00 0.00 0.00 0.00 0.00 0.00 0.00 0.00 0.00 0.00 0.00 0.00 0.00 0.00 0.00 0.01 0.01 0.02 0.02 0.03 0.05 0.07 0.09 0.11 0.12 0.13 0.13 0.12 0.10 0.08 0.05 0.02
0.00 0.00 0.00 0.00 0.00 0.00 0.00 0.00 0.00 0.00 0.00 0.00 0.00 0.00 0.00 0.00 0.00 0.00 0.00 0.00 0.00 0.00 0.00 0.00 0.00 0.00 0.00 0.00 0.01 0.02 0.03 0.04 0.05 0.06 0.06 0.07 0.07 0.08 0.09 0.11 0.10 0.09 0.07 0.04
0.00 0.00 0.00 0.00 0.00 0.00 0.00 0.00 0.00 0.00 0.00 0.00 0.00 0.00 0.00 0.00 0.00 0.00 0.00 0.00 0.00 0.00 0.00 0.00 0.00 0.00 0.00 0.00 0.02 0.03 0.04 0.05 0.05 0.04 0.04 0.05 0.07 0.07 0.07 0.07 0.07 0.05 0.04 0.02
0.00 0.00 0.00 0.00 0.00 0.00 0.00 0.00 0.00 0.00 0.00 0.00 0.00 0.00 0.00 0.00 0.00 0.00 0.00 0.00 0.00 0.00 0.00 0.00 0.00 0.00 0.00 0.01 0.02 0.04 0.05 0.05 0.04 0.04 0.04 0.05 0.07 0.09 0.10 0.08 0.05 0.03 0.02 0.01
0.00 0.00 0.00 0.00 0.00 0.00 0.00 0.00 0.00 0.00 0.00 0.00 0.00 0.00 0.00 0.00 0.00 0.00 0.00 0.00 0.00 0.00 0.00 0.00 0.00 0.00 0.00 0.01 0.02 0.04 0.04 0.04 0.03 0.04 0.04 0.04 0.06 0.07 0.09 0.08 0.07 0.05 0.02 0.01
0.00 0.00 0.00 0.00 0.00 0.00 0.00 0.00 0.00 0.00 0.00 0.00 0.00 0.00 0.00 0.00 0.00 0.00 0.00 0.00 0.00 0.00 0.00 0.00 0.00 0.00 0.00 0.01 0.02 0.04 0.04 0.03 0.03 0.03 0.03 0.03 0.04 0.05 0.05 0.06 0.06 0.05 0.04 0.03
0.00 0.00 0.00 0.00 0.00 0.00 0.00 0.00 0.00 0.00 0.00 0.00 0.00 0.00 0.00 0.00 0.00 0.00 0.00 0.00 0.00 0.00 0.00 0.00 0.01 0.01 0.01 0.01 0.02 0.04 0.04 0.02 0.02 0.01 0.02 0.02 0.02 0.03 0.02 0.03 0.04 0.03 0.03 0.03
0.00 0.00 0.00 0.00 0.00 0.00 0.00 0.00 0.00 0.00 0.00 0.00 0.00 0.00 0.00 0.00 0.00 0.00 0.00 0.00 0.00 0.00 0.00 0.01 0.01 0.01 0.01 0.01 0.02 0.03 0.03 0.02 0.01 0.01 0.01 0.01 0.01 0.01 0.01 0.02 0.02 0.02 0.02 0.03
0.00 0.00 0.00 0.00 0.00 0.00 0.00 0.00 0.00 0.00 0.00 0.00 0.00 0.00 0.00 0.00 0.00 0.00 0.00 0.00 0.00 0.00 0.01 0.01 0.02 0.02 0.02 0.02 0.02 0.03 0.03 0.02 0.01 0.00 0.01 0.01 0.00 0.00 0.00 0.01 0.01 0.01 0.02 0.02
0.00 0.00 0.00 0.00 0.00 0.00 0.00 0.00 0.00 0.00 0.00 0.00 0.00 0.00 0.00 0.00 0.00 0.00 0.00 0.00 0.00 0.01 0.01 0.02 0.02 0.02 0.03 0.03 0.03 0.03 0.04 0.02 0.01 0.00 0.00 0.01 0.01 0.00 0.00 0.00 0.00 0.01 0.01 0.01
0.00 0.00 0.00 0.00 0.00 0.00 0.00 0.00 0.00 0.00 0.00 0.00 0.00 0.00 0.00 0.00 0.00 0.00 0.00 0.00 0.00 0.00 0.01 0.02 0.01 0.02 0.03 0.04 0.03 0.04 0.04 0.02 0.01 0.00 0.00 0.00 0.01 0.01 0.01 0.01 0.00 0.01 0.01 0.01
0.00 0.00 0.00 0.00 0.00 0.00 0.00 0.00 0.00 0.00 0.00 0.00 0.00 0.00 0.00 0.00 0.00 0.00 0.00 0.00 0.00 0.00 0.01 0.01 0.01 0.02 0.02 0.03 0.03 0.04 0.04 0.03 0.01 0.00 0.00 0.00 0.00 0.01 0.02 0.02 0.02 0.02 0.01 0.01
0.00 0.00 0.00 0.00 0.00 0.00 0.00 0.00 0.00 0.00 0.00 0.00 0.00 0.00 0.00 0.00 0.00 0.00 0.00 0.00 0.00 0.00 0.00 0.01 0.01 0.01 0.01 0.02 0.04 0.04 0.05 0.04 0.02 0.01 0.00 0.00 0.00 0.01 0.02 0.03 0.03 0.03 0.03 0.03
0.00 0.00 0.00 0.00 0.00 0.00 0.00 0.00 0.00 0.00 0.00 0.00 0.00 0.00 0.00 0.00 0.00 0.00 0.00 0.00 0.00 0.00 0.00 0.01 0.01 0.01 0.01 0.02 0.03 0.03 0.04 0.04 0.03 0.02 0.01 0.00 0.00 0.00 0.01 0.02 0.04 0.04 0.04 0.04
0.00 0.00 0.00 0.00 0.00 0.00 0.00 0.00 0.00 0.00 0.00 0.00 0.00 0.00 0.00 0.00 0.00 0.00 0.00 0.00 0.00 0.00 0.00 0.00 0.00 0.00 0.00 0.01 0.02 0.02 0.02 0.03 0.03 0.03 0.02 0.00 0.00 0.00 0.00 0.01 0.01 0.02 0.03 0.02
0.00 0.00 0.00 0.00 0.00 0.00 0.00 0.00 0.00 0.00 0.00 0.00 0.00 0.00 0.00 0.00 0.00 0.00 0.00 0.00 0.00 0.00 0.00 0.00 0.00 0.00 0.00 0.01 0.01 0.01 0.01 0.01 0.02 0.03 0.02 0.01 0.00 0.00 0.00 0.00 0.00 0.01 0.01 0.01
0.00 0.00 0.00 0.00 0.00 0.00 0.00 0.00 0.00 0.00 0.00 0.00 0.00 0.00 0.00 0.00 0.00 0.00 0.00 0.00 0.00 0.00 0.00 0.00 0.00 0.00 0.00 0.00 0.00 0.01 0.01 0.01 0.01 0.02 0.02 0.01 0.00 0.00 0.00 0.00 0.00 0.00 0.00 0.01
0.00 0.00 0.00 0.00 0.00 0.00 0.00 0.00 0.00 0.00 0.00 0.00 0.00 0.00 0.00 0.00 0.00 0.00 0.00 0.00 0.00 0.00 0.00 0.00 0.00 0.00 0.00 0.00 0.00 0.00 0.01 0.00 0.01 0.01 0.01 0.00 0.00 0.00 0.00 0.00 0.00 0.00 0.00 0.00
0.00 0.01 0.01 0.01 0.00 0.00 0.00 0.00 0.00 0.00 0.00 0.00 0.00 0.00 0.00 0.00 0.00 0.00 0.00 0.00 0.00 0.00 0.00 0.00 0.00 0.00 0.00 0.00 0.00 0.00 0.01 0.01 0.01 0.01 0.01 0.01 0.00 0.00 0.00 0.00 0.00 0.00 0.00 0.00
0.01 0.01 0.01 0.01 0.00 0.00 0.00 0.00 0.00 0.00 0.00 0.00 0.00 0.00 0.00 0.00 0.00 0.00 0.00 0.00 0.00 0.00 0.00 0.00 0.00 0.00 0.00 0.00 0.00 0.00 0.01 0.01 0.01 0.01 0.01 0.00 0.01 0.00 0.00 0.00 0.00 0.00 0.00 0.00
0.02 0.02 0.02 0.01 0.01 0.00 0.00 0.00 0.00 0.00 0.00 0.00 0.00 0.00 0.00 0.00 0.00 0.00 0.00 0.00 0.00 0.00 0.00 0.00 0.00 0.00 0.00 0.00 0.00 0.00 0.01 0.01 0.01 0.01 0.01 0.01 0.01 0.01 0.00 0.00 0.00 0.00 0.00 0.00
MSLP
1017.27 1017.66 1018.00 1018.31 1018.58 1018.81 1018.99 1019.09 1019.12 1019.05 1018.89 1018.63 1018.30 1017.91 1017.49 1017.04 1016.58 1016.12 1015.67 1015.22 1014.76 1014.31 1013.87 1013.42 1012.99 1012.55 1012.12 1011.68 1011.22 1010.72 1010.17 1009.56 1008.91 1008.22 1007.52 1006.85 1006.24 1005.74 1005.37 1005.15 1005.07 1005.12 1005.29 1005.52
1017.83 1018.19 1018.46 1018.65 1018.77 1018.83 1018.85 1018.82 1018.75 1018.64 1018.48 1018.27 1018.02 1017.71 1017.35 1016.95 1016.50 1016.03 1015.52 1015.01 1014.49 1013.99 1013.52 1013.07 1012.66 1012.27 1011.88 1011.48 1011.05 1010.56 1009.99 1009.34 1008.62 1007.85 1007.07 1006.32 1005.65 1005.09 1004.68 1004.44 1004.35 1004.41 1004.58 1004.82
1018.31 1018.62 1018.81 1018.88 1018.86 1018.78 1018.67 1018.54 1018.40 1018.26 1018.11 1017.96 1017.77 1017.53 1017.23 1016.87 1016.44 1015.94 1015.39 1014.82 1014.23 1013.67 1013.15 1012.67 1012.25 1011.86 1011.50 1011.11 1010.69 1010.20 1009.61 1008.93 1008.18 1007.38 1006.56 1005.78 1005.09 1004.52 1004.11 1003.87 1003.79 1003.84 1004.01 1004.25
1018.69 1018.92 1019.01 1018.98 1018.85 1018.66 1018.45 1018.25 1018.07 1017.92 1017.79 1017.68 1017.54 1017.37 1017.12 1016.78 1016.36 1015.84 1015.26 1014.62 1013.98 1013.35 1012.77 1012.24 1011.78 1011.37 1010.98 1010.59 1010.15 1009.64 1009.05 1008.36 1007.61 1006.80 1006.00 1005.24 1004.57 1004.04 1003.66 1003.43 1003.36 1003.43 1003.59 1003.81
1018.91 1019.04 1019.03 1018.91 1018.69 1018.43 1018.17 1017.92 1017.73 1017.58 1017.48 1017.40 1017.31 1017.18 1016.97 1016.66 1016.24 1015.71 1015.09 1014.41 1013.72 1013.03 1012.38 1011.80 1011.28 1010.81 1010.38 1009.95 1009.48 1008.96 1008.36 1007.68 1006.94 1006.17 1005.41 1004.70 1004.09 1003.60 1003.27 1003.08 1003.03 1003.10 1003.25 1003.46
1018.92 1018.94 1018.84 1018.64 1018.37 1018.07 1017.78 1017.53 1017.34 1017.21 1017.13 1017.09 1017.03 1016.93 1016.74 1016.46 1016.04 1015.51 1014.88 1014.18 1013.44 1012.71 1012.01 1011.36 1010.78 1010.25 1009.76 1009.28 1008.77 1008.22 1007.61 1006.95 1006.24 1005.51 1004.81 1004.17 1003.62 1003.20 1002.91 1002.76 1002.73 1002.79 1002.93 1003.10
1018.67 1018.58 1018.40 1018.15 1017.86 1017.56 1017.28 1017.05 1016.88 1016.78 1016.73 1016.71 1016.68 1016.60 1016.44 1016.16 1015.77 1015.24 1014.61 1013.90 1013.15 1012.38 1011.64 1010.95 1010.31 1009.72 1009.17 1008.63 1008.08 1007.51 1006.89 1006.24 1005.56 1004.89 1004.24 1003.66 1003.18 1002.81 1002.55 1002.42 1002.39 1002.44 1002.55 1002.70
1018.15 1017.98 1017.75 1017.48 1017.20 1016.92 1016.69 1016.50 1016.38 1016.31 1016.29 1016.29 1016.28 1016.21 1016.05 1015.79 1015.41 1014.91 1014.29 1013.59 1012.84 1012.06 1011.30 1010.58 1009.89 1009.25 1008.64 1008.05 1007.47 1006.87 1006.25 1005.61 1004.97 1004.34 1003.74 1003.21 1002.77 1002.42 1002.18 1002.04 1001.99 1002.02 1002.10 1002.22
1017.40 1017.17 1016.92 1016.67 1016.43 1016.22 1016.05 1015.93 1015.86 1015.84 1015.84 1015.85 1015.84 1015.78 1015.63 1015.38 1015.01 1014.53 1013.93 1013.26 1012.52 1011.75 1010.98 1010.24 1009.52 1008.84 1008.19 1007.57 1006.95 1006.34 1005.72 1005.10 1004.48 1003.89 1003.33 1002.84 1002.41 1002.07 1001.82 1001.65 1001.56 1001.54 1001.59 1001.67
1016.48 1016.23 1016.01 1015.81 1015.64 1015.51 1015.42 1015.38 1015.37 1015.39 1015.42 1015.44 1015.43 1015.36 1015.21 1014.96 1014.60 1014.13 1013.56 1012.91 1012.20 1011.45 1010.68 1009.93 1009.20 1008.49 1007.82 1007.17 1006.54 1005.92 1005.31 1004.71 1004.12 1003.56 1003.03 1002.55 1002.13 1001.78 1001.49 1001.28 1001.14 1001.07 1001.07 1001.12
1015.47 1015.25 1015.08 1014.96 1014.89 1014.86 1014.87 1014.91 1014.97 1015.03 1015.08 1015.10 1015.08 1014.99 1014.83 1014.57 1014.21 1013.76 1013.21 1012.58 1011.89 1011.16 1010.40 1009.64 1008.90 1008.18 1007.49 1006.83 1006.19 1005.58 1004.99 1004.42 1003.87 1003.34 1002.84 1002.38 1001.95 1001.58 1001.26 1001.00 1000.80 1000.68 1000.62 1000.64
1014.45 1014.28 1014.20 1014.18 1014.22 1014.31 1014.42 1014.54 1014.66 1014.76 1014.82 1014.84 1014.80 1014.69 1014.51 1014.23 1013.88 1013.42 1012.89 1012.28 1011.60 1010.87 1010.12 1009.36 1008.61 1007.88 1007.17 1006.50 1005.88 1005.28 1004.72 1004.19 1003.68 1003.20 1002.73 1002.29 1001.87 1001.49 1001.14 1000.84 1000.60 1000.42 1000.32 1000.31
1013.47 1013.39 1013.40 1013.50 1013.66 1013.86 1014.07 1014.27 1014.44 1014.56 1014.63 1014.65 1014.59 1014.45 1014.25 1013.96 1013.59 1013.14 1012.60 1012.00 1011.33 1010.60 1009.84 1009.08 1008.31 1007.56 1006.84 1006.17 1005.55 1004.97 1004.45 1003.96 1003.50 1003.07 1002.65 1002.25 1001.86 1001.48 1001.13 1000.81 1000.53 1000.33 1000.20 1000.15
1012.55 1012.57 1012.69 1012.91 1013.18 1013.48 1013.78 1014.04 1014.26 1014.40 1014.48 1014.48 1014.41 1014.25 1014.03 1013.72 1013.34 1012.89 1012.35 1011.74 1011.07 1010.34 1009.57 1008.78 1007.99 1007.22 1006.49 1005.81 1005.19 1004.63 1004.13 1003.68 1003.28 1002.91 1002.55 1002.20 1001.85 1001.51 1001.17 1000.86 1000.59 1000.37 1000.22 1000.16
1011.69 1011.81 1012.04 1012.36 1012.74 1013.13 1013.50 1013.82 1014.07 1014.23 1014.31 1014.31 1014.22 1014.05 1013.81 1013.50 1013.11 1012.66 1012.12 1011.51 1010.84 1010.09 1009.31 1008.50 1007.68 1006.88 1006.12 1005.42 1004.79 1004.23 1003.75 1003.34 1002.98 1002.66 1002.37 1002.08 1001.79 1001.51 1001.22 1000.94 1000.69 1000.49 1000.35 1000.28
1010.89 1011.11 1011.44 1011.85 1012.32 1012.78 1013.20 1013.56 1013.83 1014.01 1014.10 1014.09 1013.99 1013.82 1013.58 1013.27 1012.89 1012.43 1011.90 1011.30 1010.62 1009.87 1009.07 1008.23 1007.39 1006.55 1005.76 1005.02 1004.37 1003.80 1003.32 1002.92 1002.60 1002.32 1002.08 1001.86 1001.64 1001.42 1001.20 1000.98 1000.78 1000.61 1000.50 1000.45
1010.15 1010.45 1010.87 1011.36 1011.88 1012.40 1012.86 1013.24 1013.54 1013.73 1013.82 1013.82 1013.72 1013.55 1013.32 1013.02 1012.65 1012.21 1011.70 1011.10 1010.43 1009.68 1008.87 1008.01 1007.14 1006.27 1005.43 1004.66 1003.97 1003.38 1002.88 1002.48 1002.16 1001.91 1001.71 1001.53 1001.38 1001.22 1001.07 1000.92 1000.79 1000.67 1000.60 1000.57
1009.48 1009.86 1010.34 1010.88 1011.45 1012.00 1012.49 1012.90 1013.20 1013.41 1013.51 1013.51 1013.43 1013.27 1013.05 1012.77 1012.42 1012.00 1011.51 1010.93 1010.28 1009.53 1008.72 1007.86 1006.97 1006.07 1005.21 1004.40 1003.66 1003.03 1002.50 1002.07 1001.73 1001.48 1001.29 1001.15 1001.04 1000.94 1000.85 1000.77 1000.70 1000.65 1000.62 1000.62
1008.91 1009.34 1009.87 1010.45 1011.04 1011.61 1012.12 1012.54 1012.86 1013.07 1013.18 1013.21 1013.14 1013.00 1012.80 1012.54 1012.22 1011.83 1011.35 1010.81 1010.17 1009.45 1008.65 1007.79 1006.90 1006.00 1005.11 1004.27 1003.50 1002.83 1002.25 1001.78 1001.41 1001.13 1000.93 1000.79 1000.70 1000.64 1000.59 1000.56 1000.55 1000.54 1000.56 1000.60
1008.47 1008.93 1009.48 1010.08 1010.69 1011.27 1011.78 1012.22 1012.55 1012.78 1012.91 1012.94 1012.90 1012.78 1012.60 1012.36 1012.06 1011.69 1011.25 1010.72 1010.11 1009.42 1008.66 1007.82 1006.95 1006.05 1005.17 1004.32 1003.53 1002.81 1002.20 1001.68 1001.27 1000.95 1000.72 1000.55 1000.46 1000.40 1000.37 1000.37 1000.39 1000.43 1000.48 1000.54
1008.15 1008.62 1009.18 1009.78 1010.39 1010.97 1011.50 1011.94 1012.29 1012.54 1012.69 1012.76 1012.73 1012.64 1012.47 1012.25 1011.97 1011.61 1011.19 1010.69 1010.11 1009.46 1008.72 1007.93 1007.10 1006.23 1005.37 1004.53 1003.74 1003.02 1002.37 1001.82 1001.36 1000.99 1000.72 1000.52 1000.39 1000.31 1000.28 1000.28 1000.31 1000.36 1000.42 1000.50
1007.92 1008.39 1008.93 1009.52 1010.12 1010.71 1011.24 1011.70 1012.08 1012.35 1012.54 1012.63 1012.64 1012.57 1012.42 1012.21 1011.93 1011.59 1011.18 1010.70 1010.15 1009.52 1008.84 1008.10 1007.32 1006.51 1005.70 1004.90 1004.13 1003.42 1002.77 1002.19 1001.70 1001.29 1000.96 1000.72 1000.53 1000.42 1000.35 1000.34 1000.35 1000.39 1000.45 1000.52
1007.73 1008.16 1008.67 1009.24 1009.83 1010.41 1010.96 1011.45 1011.86 1012.18 1012.41 1012.55 1012.59 1012.54 1012.42 1012.22 1011.95 1011.61 1011.21 1010.73 1010.20 1009.61 1008.97 1008.29 1007.57 1006.83 1006.09 1005.35 1004.64 1003.96 1003.33 1002.76 1002.24 1001.80 1001.43 1001.14 1000.90 1000.73 1000.62 1000.56 1000.53 1000.54 1000.57 1000.61
1007.48 1007.86 1008.33 1008.87 1009.45 1010.03 1010.60 1011.12 1011.58 1011.96 1012.25 1012.44 1012.53 1012.53 1012.43 1012.25 1011.98 1011.65 1011.24 1010.78 1010.26 1009.70 1009.10 1008.47 1007.83 1007.16 1006.50 1005.84 1005.19 1004.57 1003.98 1003.43 1002.92 1002.47 1002.06 1001.72 1001.43 1001.21 1001.03 1000.91 1000.83 1000.79 1000.78 1000.78
1007.11 1007.42 1007.84 1008.34 1008.90 1009.49 1010.09 1010.66 1011.18 1011.63 1012.00 1012.27 1012.42 1012.47 1012.41 1012.26 1012.01 1011.68 1011.28 1010.82 1010.32 1009.78 1009.22 1008.64 1008.05 1007.47 1006.88 1006.30 1005.73 1005.18 1004.64 1004.12 1003.64 1003.18 1002.76 1002.38 1002.04 1001.76 1001.52 1001.34 1001.20 1001.10 1001.03 1000.99
1006.56 1006.80 1007.16 1007.62 1008.16 1008.77 1009.39 1010.02 1010.61 1011.15 1011.60 1011.96 1012.21 1012.33 1012.33 1012.22 1012.01 1011.70 1011.31 1010.86 1010.38 1009.86 1009.33 1008.79 1008.26 1007.73 1007.22 1006.71 1006.22 1005.73 1005.25 1004.77 1004.31 1003.86 1003.43 1003.02 1002.65 1002.31 1002.02 1001.77 1001.57 1001.41 1001.29 1001.21
1005.83 1005.99 1006.29 1006.71 1007.24 1007.85 1008.51 1009.20 1009.87 1010.50 1011.06 1011.52 1011.87 1012.08 1012.17 1012.12 1011.96 1011.69 1011.34 1010.91 1010.45 1009.95 1009.44 1008.94 1008.45 1007.97 1007.52 1007.07 1006.64 1006.20 1005.77 1005.34 1004.90 1004.46 1004.03 1003.60 1003.20 1002.82 1002.47 1002.17 1001.91 1001.71 1001.54 1001.43
Thickness
5693 5696 5693 5684 5679 5675 5667 5660 5644 5643 5642 5641 5637 5631 5628 5625 5620 5613 5607 5601 5595 5590 5585 5581 5577 5573 5568 5562 5555 5548 5541 5535 5529 5525 5521 5520 5521 5523 5525 5527 5531 5533 5536 5539
5689 5689 5685 5676 5675 5672 5665 5659 5651 5643 5639 5642 5635 5626 5620 5616 5612 5605 5600 5596 5591 5586 5581 5576 5571 5566 5559 5551 5543 5534 5526 5519 5513 5508 5503 5501 5501 5503 5506 5511 5515 5518 5523 5527
5674 5681 5677 5665 5669 5667 5661 5655 5647 5634 5634 5636 5628 5621 5615 5613 5606 5598 5594 5589 5584 5580 5575 5570 5565 5558 5549 5541 5531 5521 5513 5506 5498 5491 5485 5483 5483 5485 5489 5494 5500 5505 5510 5515
5667 5671 5661 5666 5678 5673 5661 5653 5648 5640 5634 5630 5624 5620 5612 5606 5598 5592 5587 5583 5578 5574 5569 5563 5557 5549 5541 5531 5521 5511 5502 5493 5484 5475 5469 5466 5466 5468 5473 5478 5485 5492 5498 5504
5659 5660 5661 5668 5673 5666 5653 5644 5646 5638 5632 5627 5625 5616 5610 5607 5598 5589 5582 5576 5571 5567 5563 5558 5551 5544 5534 5524 5513 5503 5494 5484 5473 5463 5457 5454 5454 5456 5460 5465 5472 5479 5487 5493
5656 5658 5652 5665 5675 5671 5654 5641 5645 5637 5629 5622 5613 5601 5603 5602 5593 5585 5577 5571 5566 5563 5559 5554 5547 5539 5528 5518 5508 5498 5488 5478 5466 5456 5449 5447 5446 5447 5450 5455 5462 5469 5477 5484
5655 5652 5657 5673 5674 5664 5642 5641 5647 5638 5630 5620 5607 5598 5597 5591 5585 5579 5572 5567 5564 5561 5556 5551 5543 5533 5522 5512 5503 5494 5484 5473 5462 5453 5446 5443 5441 5442 5444 5448 5455 5462 5469 5476
5647 5650 5657 5677 5666 5654 5651 5652 5646 5639 5630 5620 5610 5602 5595 5588 5582 5576 5571 5566 5563 5559 5554 5548 5540 5529 5519 5509 5500 5491 5481 5472 5462 5453 5447 5444 5441 5440 5441 5444 5450 5456 5462 5469
5661 5664 5675 5674 5669 5667 5657 5649 5645 5637 5629 5619 5610 5600 5592 5585 5579 5574 5569 5565 5561 5556 5551 5546 5537 5527 5517 5508 5499 5491 5482 5473 5464 5456 5449 5445 5442 5441 5442 5444 5448 5454 5459 5465
5666 5671 5674 5674 5671 5667 5658 5649 5645 5636 5627 5618 5607 5597 5588 5582 5578 5573 5569 5564 5559 5554 5549 5545 5537 5528 5517 5508 5499 5491 5484 5475 5466 5459 5453 5449 5446 5445 5445 5447 5450 5454 5458 5463
5669 5673 5674 5671 5667 5663 5657 5650 5641 5633 5624 5615 5604 5594 5587 5581 5577 5572 5568 5562 5557 5552 5547 5543 5538 5530 5521 5510 5501 5495 5488 5479 5471 5463 5456 5453 5450 5449 5450 5452 5453 5456 5460 5464
5672 5678 5670 5669 5669 5662 5653 5645 5638 5629 5621 5612 5603 5593 5587 5581 5576 5571 5566 5561 5555 5551 5547 5543 5538 5532 5525 5515 5505 5498 5492 5484 5476 5468 5462 5457 5454 5454 5455 5455 5457 5458 5461 5466
5689 5685 5676 5674 5668 5661 5652 5644 5636 5628 5619 5610 5601 5592 5585 5578 5574 5569 5564 5559 5554 5550 5546 5543 5539 5535 5528 5519 5510 5503 5496 5489 5482 5474 5467 5462 5459 5458 5459 5460 5461 5462 5464 5467
5688 5681 5674 5670 5664 5658 5650 5643 5634 5626 5617 5607 5598 5590 5582 5576 5572 5568 5564 5559 5554 5549 5547 5544 5541 5537 5531 5524 5517 5509 5502 5495 5488 5480 5473 5468 5465 5463 5463 5464 5466 5466 5466 5469
5687 5683 5677 5671 5662 5654 5647 5637 5628 5619 5611 5604 5596 5588 5581 5575 5571 5567 5562 5558 5553 5550 5547 5545 5542 5538 5534 5529 5523 5517 5509 5502 5495 5488 5481 5476 5472 5469 5469 5469 5469 5469 5470 5471
5687 5679 5672 5665 5657 5649 5641 5633 5624 5616 5609 5602 5594 5587 5581 5574 5568 5564 5559 5555 5551 5549 5546 5544 5541 5538 5536 5534 5529 5524 5517 5511 5504 5497 5490 5484 5480 5477 5475 5474 5474 5474 5474 5474
5681 5673 5666 5659 5652 5644 5637 5630 5622 5614 5606 5599 5592 5585 5579 5573 5568 5564 5561 5556 5550 5547 5544 5540 5539 5539 5539 5537 5534 5531 5526 5518 5512 5504 5497 5492 5487 5484 5481 5480 5479 5478 5477 5477
5693 5685 5673 5663 5652 5643 5635 5628 5620 5612 5603 5596 5589 5580 5574 5568 5563 5561 5558 5555 5552 5549 5544 5540 5539 5540 5542 5541 5539 5538 5534 5526 5518 5511 5505 5500 5495 5491 5488 5485 5483 5482 5480 5479
5686 5678 5668 5659 5651 5641 5632 5624 5617 5609 5601 5592 5583 5575 5569 5563 5558 5555 5552 5550 5549 5548 5545 5541 5540 5541 5542 5543 5543 5543 5540 5534 5527 5520 5514 5508 5504 5499 5494 5491 5488 5486 5484 5483
5679 5671 5662 5653 5645 5636 5628 5621 5614 5605 5597 5588 5579 5571 5565 5560 5556 5552 5549 5546 5543 5540 5537 5537 5538 5540 5541 5544 5545 5546 5544 5540 5534 5528 5522 5516 5511 5506 5502 5498 5494 5491 5489 5488
5671 5663 5655 5647 5639 5632 5625 5618 5610 5601 5593 5583 5575 5567 5561 5556 5552 5549 5547 5547 5543 5538 5536 5536 5537 5538 5540 5542 5545 5546 5546 5543 5538 5533 5529 5524 5519 5514 5510 5505 5501 5499 5497 5495
5662 5655 5648 5641 5633 5625 5618 5611 5604 5596 5587 5578 5571 5563 5557 5553 5549 5546 5544 5541 5539 5536 5535 5535 5535 5535 5537 5540 5543 5544 5545 5544 5541 5537 5534 5530 5525 5521 5517 5513 5510 5507 5505 5503
5654 5648 5641 5635 5627 5619 5611 5603 5598 5591 5582 5574 5566 5559 5553 5549 5546 5543 5542 5539 5536 5534 5533 5533 5531 5532 5534 5538 5540 5541 5542 5542 5541 5539 5537 5535 5531 5527 5524 5520 5517 5515 5513 5511
5644 5638 5634 5627 5619 5610 5603 5597 5591 5584 5577 5568 5560 5554 5549 5546 5543 5540 5537 5535 5533 5531 5531 5530 5528 5529 5532 5534 5536 5538 5539 5539 5539 5539 5539 5538 5536 5534 5531 5528 5525 5523 5521 5520
5639 5633 5627 5620 5614 5609 5602 5592 5583 5577 5570 5562 5555 5550 5545 5541 5538 5536 5534 5532 5530 5529 5529 5528 5527 5527 5529 5530 5532 5533 5535 5535 5536 5537 5539 5539 5540 5539 5538 5536 5533 5531 5529 5528
5633 5628 5624 5621 5618 5609 5598 5588 5580 5572 5565 5557 5551 5545 5541 5537 5535 5532 5530 5528 5526 5525 5525 5525 5524 5524 5524 5525 5527 5529 5530 5532 5534 5535 5536 5538 5540 5541 5542 5542 5541 5540 5538 5537
5623 5620 5616 5612 5609 5603 5596 5588 5580 5571 5563 5556 5548 5542 5536 5533 5530 5528 5526 5524 5522 5521 5520 5520 5519 5519 5518 5519 5521 5523 5526 5528 5529 5531 5533 5536 5538 5540 5542 5544 5545 5546 5545 5545